| time (UTC) | temp C | wind direction | speed KPH | gust KPH | rain 1hr cm | rain 24hr cm | rain mn cm | humidity % | barometer mb |
| 20260506161521 | 16 | 81 | 1.6 | 6.4 | 0.00 | 0.00 | 0.00 | 75 | 1009.4 |
| 20260506160021 | 16 | 85 | 1.6 | 11.3 | 0.00 | 0.00 | 0.00 | 71 | 1009.4 |
| 20260506154518 | 16 | 101 | 1.6 | 6.4 | 0.00 | 0.00 | 0.00 | 75 | 1009.3 |
| 20260506153017 | 15 | 200 | 1.6 | 9.7 | 0.00 | 0.00 | 0.00 | 76 | 1009.4 |
| 20260506151529 | 15 | 76 | 1.6 | 8.0 | 0.00 | 0.00 | 0.00 | 75 | 1009.8 |
| 20260506150015 | 15 | 134 | 0.0 | 4.8 | 0.00 | 0.00 | 0.00 | 74 | 1009.7 |
| 20260506144513 | 15 | 164 | 3.2 | 11.3 | 0.00 | 0.00 | 0.00 | 76 | 1009.8 |
| 20260506143015 | 14 | 198 | 4.8 | 16.1 | 0.00 | 0.00 | 0.00 | 78 | 1009.7 |
| 20260506141512 | 15 | 133 | 6.4 | 17.7 | 0.00 | 0.00 | 0.00 | 76 | 1009.6 |
| 20260506140015 | 15 | 167 | 4.8 | 11.3 | 0.00 | 0.00 | 0.00 | 75 | 1009.7 |
| 20260506134509 | 15 | 174 | 4.8 | 16.1 | 0.00 | 0.00 | 0.00 | 75 | 1009.8 |
| 20260506133009 | 15 | 188 | 3.2 | 14.5 | 0.00 | 0.00 | 0.00 | 77 | 1010.0 |
| 20260506131515 | 15 | 122 | 4.8 | 14.5 | 0.00 | 0.00 | 0.00 | 77 | 1009.9 |
| 20260506130009 | 15 | 192 | 3.2 | 14.5 | 0.00 | 0.00 | 0.00 | 77 | 1009.8 |
| 20260506124507 | 15 | 136 | 6.4 | 14.5 | 0.00 | 0.00 | 0.00 | 75 | 1009.8 |
| 20260506123006 | 16 | 176 | 3.2 | 12.9 | 0.00 | 0.00 | 0.00 | 75 | 1009.9 |
| 20260506121506 | 17 | 150 | 1.6 | 11.3 | 0.00 | 0.00 | 0.00 | 74 | 1009.9 |
| 20260506120005 | 17 | 127 | 1.6 | 19.3 | 0.00 | 0.00 | 0.00 | 75 | 1010.1 |
| 20260506114604 | 16 | 241 | 3.2 | 11.3 | 0.00 | 0.00 | 0.00 | 78 | 1010.2 |
| 20260506113101 | 15 | 199 | 1.6 | 11.3 | 0.00 | 0.00 | 0.00 | 79 | 1010.1 |
| 20260506111604 | 15 | 213 | 1.6 | 9.7 | 0.00 | 0.00 | 0.00 | 81 | 1010.1 |
| 20260506110051 | 14 | 177 | 0.0 | 6.4 | 0.00 | 0.00 | 0.00 | 83 | 1010.1 |
| 20260506104556 | 13 | 191 | 0.0 | 6.4 | 0.00 | 0.00 | 0.00 | 84 | 1010.2 |
| 20260506103057 | 13 | 159 | 0.0 | 8.0 | 0.00 | 0.00 | 0.00 | 84 | 1010.1 |
| 20260506101552 | 13 | 182 | 3.2 | 9.7 | 0.00 | 0.00 | 0.00 | 84 | 1010.0 |
| 20260506100051 | 13 | 197 | 0.0 | 8.0 | 0.00 | 0.00 | 0.00 | 85 | 1009.9 |
| 20260506094546 | 13 | 163 | 0.0 | 9.7 | 0.00 | 0.00 | 0.00 | 84 | 1009.9 |
| 20260506093045 | 13 | 198 | 0.0 | 8.0 | 0.00 | 0.00 | 0.00 | 85 | 1009.8 |
| 20260506091543 | 13 | 226 | 1.6 | 8.0 | 0.00 | 0.00 | 0.00 | 85 | 1010.0 |
| 20260506090042 | 13 | 204 | 3.2 | 11.3 | 0.00 | 0.00 | 0.00 | 85 | 1010.1 |
| 20260506084543 | 13 | 116 | 3.2 | 12.9 | 0.00 | 0.00 | 0.00 | 85 | 1010.1 |
| 20260506083040 | 12 | 155 | 3.2 | 9.7 | 0.00 | 0.00 | 0.00 | 85 | 1010.2 |
| 20260506081539 | 12 | 214 | 1.6 | 9.7 | 0.00 | 0.00 | 0.00 | 85 | 1010.2 |
| 20260506073038 | 13 | 162 | 1.6 | 9.7 | 0.00 | 0.00 | 0.00 | 84 | 1010.3 |
| 20260506071537 | 12 | 155 | 1.6 | 9.7 | 0.00 | 0.00 | 0.00 | 83 | 1010.4 |
| 20260506061530 | 12 | 213 | 0.0 | 4.8 | 0.00 | 0.00 | 0.00 | 83 | 1010.3 |
| 20260506044519 | 13 | 235 | 0.0 | 8.0 | 0.00 | 0.00 | 0.00 | 80 | 1010.8 |
| 20260506043015 | 13 | 138 | 0.0 | 4.8 | 0.00 | 0.00 | 0.00 | 80 | 1010.7 |
| 20260506041513 | 13 | 205 | 0.0 | 4.8 | 0.00 | 0.00 | 0.00 | 79 | 1010.7 |
| 20260506040016 | 14 | 115 | 0.0 | 4.8 | 0.00 | 0.00 | 0.00 | 78 | 1010.6 |
| 20260506034510 | 15 | 136 | 0.0 | 6.4 | 0.00 | 0.00 | 0.00 | 76 | 1010.7 |
| 20260506033008 | 15 | 179 | 0.0 | 4.8 | 0.00 | 0.00 | 0.00 | 74 | 1010.6 |
| 20260506031508 | 17 | 150 | 1.6 | 12.9 | 0.00 | 0.00 | 0.00 | 71 | 1010.5 |
| 20260506030007 | 18 | 206 | 4.8 | 19.3 | 0.00 | 0.00 | 0.00 | 70 | 1010.5 |
| 20260506024506 | 16 | 230 | 3.2 | 11.3 | 0.00 | 0.00 | 0.00 | 73 | 1010.4 |
| 20260506023005 | 16 | 181 | 0.0 | 6.4 | 0.00 | 0.00 | 0.00 | 73 | 1010.5 |
| 20260506021511 | 15 | 231 | 0.0 | 3.2 | 0.00 | 0.00 | 0.00 | 74 | 1010.5 |
| 20260506020004 | 15 | 142 | 1.6 | 9.7 | 0.00 | 0.00 | 0.00 | 74 | 1010.4 |
| 20260506014504 | 15 | 193 | 0.0 | 6.4 | 0.00 | 0.00 | 0.00 | 76 | 1010.5 |
| 20260506013003 | 14 | 273 | 4.8 | 11.3 | 0.00 | 0.00 | 0.00 | 76 | 1010.2 |
| 20260506011502 | 15 | 156 | 4.8 | 12.9 | 0.00 | 0.00 | 0.00 | 76 | 1010.2 |
| 20260506010002 | 15 | 183 | 3.2 | 17.7 | 0.00 | 0.00 | 0.00 | 76 | 1010.1 |
| 20260506004502 | 15 | 179 | 4.8 | 16.1 | 0.00 | 0.00 | 0.00 | 75 | 1009.9 |
| 20260506003001 | 15 | 214 | 4.8 | 16.1 | 0.00 | 0.00 | 0.00 | 76 | 1009.8 |
| 20260506001501 | 15 | 181 | 6.4 | 22.5 | 0.00 | 0.00 | 0.00 | 76 | 1009.6 |
| 20260505234610 | 15 | 114 | 3.2 | 22.5 | 0.00 | 0.00 | 0.00 | 76 | 1009.2 |
| 20260505233059 | 15 | 145 | 8.0 | 22.5 | 0.00 | 0.00 | 0.00 | 76 | 1008.9 |
| 20260505231559 | 15 | 172 | 8.0 | 19.3 | 0.00 | 0.00 | 0.00 | 75 | 1008.5 |
| 20260505224557 | 16 | 234 | 6.4 | 22.5 | 0.00 | 0.00 | 0.00 | 74 | 1008.3 |
| 20260505223056 | 16 | 173 | 6.4 | 22.5 | 0.00 | 0.00 | 0.00 | 73 | 1008.5 |
| 20260505221558 | 16 | 226 | 6.4 | 22.5 | 0.00 | 0.00 | 0.00 | 73 | 1008.1 |
| 20260505220055 | 17 | 213 | 4.8 | 17.7 | 0.00 | 0.00 | 0.00 | 70 | 1008.2 |
| 20260505214622 | 17 | 185 | 6.4 | 19.3 | 0.00 | 0.00 | 0.00 | 70 | 1008.0 |
| 20260505213102 | 18 | 251 | 9.7 | 19.3 | 0.00 | 0.00 | 0.00 | 69 | 1008.1 |
| 20260505211553 | 17 | 198 | 6.4 | 17.7 | 0.00 | 0.00 | 0.00 | 70 | 1008.0 |
| 20260505210058 | 17 | 214 | 8.0 | 20.9 | 0.00 | 0.00 | 0.00 | 70 | 1007.9 |
| 20260505204557 | 17 | 117 | 6.4 | 19.3 | 0.00 | 0.00 | 0.00 | 70 | 1007.9 |
| 20260505203053 | 17 | 230 | 11.3 | 24.1 | 0.00 | 0.00 | 0.00 | 71 | 1008.0 |
| 20260505201553 | 17 | 121 | 6.4 | 19.3 | 0.00 | 0.00 | 0.00 | 70 | 1008.0 |
| 20260505200100 | 17 | 101 | 6.4 | 19.3 | 0.00 | 0.00 | 0.00 | 70 | 1008.2 |
| 20260505194549 | 17 | 146 | 8.0 | 27.4 | 0.00 | 0.00 | 0.00 | 70 | 1008.3 |
| 20260505193048 | 17 | 212 | 9.7 | 25.7 | 0.00 | 0.00 | 0.00 | 70 | 1008.5 |
| 20260505191541 | 17 | 150 | 11.3 | 24.1 | 0.00 | 0.00 | 0.00 | 69 | 1008.8 |
| 20260505190039 | 17 | 189 | 4.8 | 27.4 | 0.00 | 0.00 | 0.00 | 70 | 1009.1 |
| 20260505184535 | 17 | 212 | 6.4 | 25.7 | 0.00 | 0.00 | 0.00 | 69 | 1009.4 |
| 20260505183036 | 17 | 144 | 4.8 | 24.1 | 0.00 | 0.00 | 0.00 | 70 | 1009.7 |
| 20260505181533 | 18 | 192 | 4.8 | 19.3 | 0.00 | 0.00 | 0.00 | 67 | 1009.7 |
| 20260505180055 | 18 | 203 | 4.8 | 20.9 | 0.00 | 0.00 | 0.00 | 65 | 1009.7 |
| 20260505174549 | 19 | 77 | 3.2 | 17.7 | 0.00 | 0.00 | 0.00 | 65 | 1009.9 |
| 20260505173034 | 18 | 160 | 3.2 | 16.1 | 0.00 | 0.00 | 0.00 | 66 | 1010.1 |
| 20260505171528 | 19 | 181 | 4.8 | 12.9 | 0.00 | 0.00 | 0.00 | 65 | 1010.1 |
| 20260505170029 | 20 | 103 | 1.6 | 11.3 | 0.00 | 0.00 | 0.00 | 64 | 1010.3 |
| 20260505164525 | 20 | 122 | 3.2 | 14.5 | 0.00 | 0.00 | 0.00 | 63 | 1010.5 |
| 20260505163025 | 20 | 173 | 3.2 | 11.3 | 0.00 | 0.00 | 0.00 | 62 | 1010.5 |